HAWK-B (43794 NORAD) Tracking and Keplerian Element Data

This shows tracking and keplerian element data for the satellite.

Feedback or suggestion? Click here.




ElementValue
Catalog43794
NameHAWK-B
Epoch Orbit4276
Epoch Day258.89908344
Epoch Year2019
RAAN330.0414
Inclination97.7361
Eccentricity0.001624
Argument of Perigee42.4787
Mean Anonmoly317.7687
Mean Motion14.96010763
Decay Rate3.8E-07
L11 43794U 18099AN 19258.89908344 .00000038 00000-0 85937-5 0 9992
L22 43794 97.7361 330.0414 0016240 42.4787 317.7687 14.96010763 42767

Live tracking and technical data element details for HAWK-B (NORAD 43794). HAWK-B can be tracked NOW for your location showing map with azimuth and elevation plus other details from your city location.

Track the satellite on the map from your city or location and see movement details for azimuth, elevation, latitude, longitude, range, height, and movement on the map or in text.







IsCatalogInMostPopularTable: catalog: 43794, numindb: 125
Update: records affected: 1



GetName: 43794 HAWK-B

Hit Count: updated at: Tue, 17 Sep 2019 20:36:00 GMT